{"data":{"norad_id":65470,"epoch":"2026-09-20T21:26:09.976128Z","epoch_age_seconds":80924,"freshness":"FRESH","line1":"1 65470U 25195N   26263.89317102  .00015749  00000+0  51810-3 0  9997","line2":"2 65470  53.1571  69.8185 0001527  92.3165 267.8011 15.31705092 59905","mean_motion":15.31705092,"eccentricity":0.0001527,"inclination_deg":53.1571,"raan_deg":69.8185,"arg_perigee_deg":92.3165,"mean_anomaly_deg":267.8011,"bstar":0.0005181,"rev_number":5990,"period_min":94.012875423672,"perigee_km":469.67899508132,"apogee_km":471.77063748001,"semimajor_km":6848.8618162807,"source":"CELESTRAK","updated_at":"2026-09-21T09:00:35.616334Z"}}